View from above orbital plane
|
View from above satellite
|
Ground track
|
The orbit data is extracted from the following two-line orbital elements,
1 23560U 95021A 21055.52153592 .00001404 00000-0 62255-4 0 9991
2 23560 98.5549 249.9229 0004203 47.4363 312.7225 15.23688353380491
Epoch (UTC): | 24 February 2021 12:31:00 |
Eccentricity: | 0.0004203 |
inclination: | 98.5549° |
perigee height: | 492 km |
apogee height: | 497 km |
right ascension of ascending node: | 249.9229° |
argument of perigee: | 47.4363° |
revolutions per day: | 15.23688353 |
mean anomaly at epoch: | 312.7225° |
orbit number at epoch: | 38049 |
The dashed part of the orbit path shows where the satellite is in the earth's shadow,
|
|